ABR403 EDDV-LEMD

Flight info

Callsign ABR403
Flight time 2h 33m
Altitude 36000
Route VAXEV2Y VAXEV Z718 OSNAD L980 PAM/N0456F370 N872 MEDIL DCT KOVIN DCT DUCRA UM728 RESMI UN857 DISAK DCT ARKIP DCT ARNAV DCT LMG DCT UVELI DCT OSMOB DCT ARVID T424 PPN N10 BANEV
Aircraft B738/M-SDE2E3FGHIRWXY/LB1

Departure

Time 2026-05-07 23:54
Airport Hannover Airport (EDDV)

Arrival

Time 2026-05-08 02:27
Airport Adolfo Suárez Madrid–Barajas Airport (LEMD)
Time Latitude Longitude Altitude Speed Heading
2026-05-07 23:21 52.45860 9.68712 190 ft 0 kts
2026-05-07 23:33 52.45859 9.68712 206 ft 2 kts
2026-05-07 23:33 52.45834 9.68711 190 ft 4 kts
2026-05-07 23:33 52.45810 9.68709 190 ft 4 kts 358°
2026-05-07 23:33 52.45788 9.68719 201 ft 4 kts 301°
2026-05-07 23:34 52.45782 9.68757 190 ft 2 kts 272°
2026-05-07 23:34 52.45782 9.68767 190 ft 0 kts 272°
2026-05-07 23:43 52.45782 9.68759 190 ft 3 kts 273°
2026-05-07 23:44 52.45791 9.68698 190 ft 7 kts 304°
2026-05-07 23:44 52.45817 9.68700 190 ft 3 kts 70°
2026-05-07 23:44 52.45816 9.68750 190 ft 6 kts 93°
2026-05-07 23:44 52.45813 9.68875 190 ft 15 kts 86°
2026-05-07 23:45 52.45887 9.68949 190 ft 14 kts 339°
2026-05-07 23:45 52.45968 9.68861 190 ft 14 kts 322°
2026-05-07 23:45 52.46041 9.68769 190 ft 13 kts 324°
2026-05-07 23:45 52.46113 9.68685 190 ft 13 kts 323°
2026-05-07 23:46 52.46183 9.68596 190 ft 12 kts 322°
2026-05-07 23:46 52.46258 9.68502 190 ft 18 kts 322°
2026-05-07 23:46 52.46380 9.68349 190 ft 25 kts 322°
2026-05-07 23:46 52.46513 9.68156 190 ft 25 kts 289°
2026-05-07 23:47 52.46530 9.67878 190 ft 24 kts 273°
2026-05-07 23:47 52.46535 9.67616 190 ft 23 kts 274°
2026-05-07 23:47 52.46545 9.67361 190 ft 22 kts 272°
2026-05-07 23:47 52.46551 9.67114 190 ft 21 kts 272°
2026-05-07 23:48 52.46558 9.66874 190 ft 21 kts 272°
2026-05-07 23:48 52.46565 9.66641 190 ft 20 kts 272°
2026-05-07 23:48 52.46570 9.66415 190 ft 20 kts 272°
2026-05-07 23:48 52.46576 9.66193 190 ft 20 kts 273°
2026-05-07 23:49 52.46583 9.65957 190 ft 21 kts 271°
2026-05-07 23:49 52.46589 9.65723 190 ft 20 kts 273°
2026-05-07 23:49 52.46595 9.65497 190 ft 20 kts 271°
2026-05-07 23:49 52.46622 9.65326 190 ft 15 kts 314°
2026-05-07 23:50 52.46719 9.65280 187 ft 15 kts
2026-05-07 23:50 52.46815 9.65359 182 ft 17 kts 50°
2026-05-07 23:50 52.46822 9.65527 180 ft 11 kts 101°
2026-05-07 23:50 52.46820 9.65556 180 ft 0 kts 95°
2026-05-07 23:51 52.46820 9.65557 180 ft 0 kts 95°
2026-05-07 23:52 52.46819 9.65562 180 ft 0 kts 95°
2026-05-07 23:52 52.46819 9.65569 180 ft 1 kts 95°
2026-05-07 23:52 52.46819 9.65580 181 ft 5 kts 95°
2026-05-07 23:52 52.46812 9.65727 182 ft 20 kts 92°
2026-05-07 23:53 52.46804 9.66026 183 ft 33 kts 92°
2026-05-07 23:53 52.46791 9.66457 185 ft 43 kts 92°
2026-05-07 23:53 52.46770 9.67258 186 ft 102 kts 92°
2026-05-07 23:53 52.46729 9.68738 191 ft 155 kts 92°
2026-05-07 23:54 52.46736 9.70691 407 ft 183 kts 86°
2026-05-07 23:54 52.46830 9.72806 1002 ft 197 kts 89°
2026-05-07 23:54 52.46859 9.75104 1571 ft 199 kts 75°
2026-05-07 23:54 52.47659 9.76854 2297 ft 198 kts 26°
2026-05-07 23:55 52.49026 9.77179 2729 ft 207 kts 351°
2026-05-07 23:55 52.50479 9.76788 3173 ft 216 kts 350°
2026-05-07 23:55 52.51810 9.75596 3640 ft 229 kts 311°
2026-05-07 23:55 52.52629 9.73203 3886 ft 254 kts 294°
2026-05-07 23:56 52.53351 9.70467 4326 ft 267 kts 295°
2026-05-07 23:56 52.54111 9.67643 4914 ft 274 kts 295°
2026-05-07 23:56 52.54932 9.64655 5005 ft 301 kts 295°
2026-05-07 23:56 52.55827 9.61432 5023 ft 327 kts 296°
2026-05-07 23:57 52.56811 9.57909 5019 ft 350 kts 295°
2026-05-07 23:57 52.57838 9.54236 5489 ft 355 kts 295°
2026-05-07 23:57 52.58876 9.50520 5983 ft 359 kts 295°
2026-05-07 23:57 52.59921 9.46761 6476 ft 363 kts 295°
2026-05-07 23:58 52.60824 9.42883 6958 ft 366 kts 282°
2026-05-07 23:58 52.60839 9.38699 7457 ft 369 kts 258°
2026-05-07 23:58 52.59902 9.34796 7966 ft 369 kts 238°
2026-05-07 23:58 52.58219 9.31631 8466 ft 368 kts 218°
2026-05-07 23:59 52.56181 9.29083 8980 ft 368 kts 216°
2026-05-07 23:59 52.54116 9.26603 9473 ft 368 kts 216°
2026-05-07 23:59 52.52050 9.24120 9971 ft 367 kts 216°
2026-05-07 23:59 52.49998 9.21625 10471 ft 368 kts 216°
2026-05-08 00:00 52.47948 9.19107 10968 ft 367 kts 217°
2026-05-08 00:00 52.45918 9.16600 11463 ft 365 kts 217°
2026-05-08 00:00 52.43894 9.14101 11958 ft 363 kts 217°
2026-05-08 00:00 52.41878 9.11619 12454 ft 361 kts 217°
2026-05-08 00:01 52.39973 9.08943 12922 ft 365 kts 230°
2026-05-08 00:01 52.38670 9.05355 13401 ft 370 kts 248°
2026-05-08 00:01 52.37719 9.01432 13985 ft 372 kts 249°
2026-05-08 00:01 52.36803 8.97525 14565 ft 374 kts 249°
2026-05-08 00:02 52.35867 8.93530 15132 ft 376 kts 249°
2026-05-08 00:02 52.34917 8.89525 15696 ft 379 kts 249°
2026-05-08 00:02 52.33949 8.85497 16277 ft 381 kts 249°
2026-05-08 00:02 52.32968 8.81448 16829 ft 383 kts 249°
2026-05-08 00:03 52.31980 8.77393 17349 ft 386 kts 249°
2026-05-08 00:03 52.30981 8.73305 17869 ft 388 kts 249°
2026-05-08 00:03 52.29977 8.69201 18379 ft 390 kts 248°
2026-05-08 00:03 52.28966 8.65075 18843 ft 393 kts 248°
2026-05-08 00:04 52.27944 8.60917 19288 ft 396 kts 248°
2026-05-08 00:04 52.26915 8.56738 19782 ft 398 kts 248°
2026-05-08 00:04 52.25883 8.52529 20243 ft 400 kts 248°
2026-05-08 00:04 52.24846 8.48294 20667 ft 403 kts 248°
2026-05-08 00:05 52.23804 8.44039 21107 ft 404 kts 248°
2026-05-08 00:05 52.22769 8.39820 21496 ft 407 kts 248°
2026-05-08 00:05 52.21707 8.35513 21879 ft 410 kts 248°
2026-05-08 00:05 52.20665 8.31181 22296 ft 411 kts 251°
2026-05-08 00:06 52.19941 8.26668 22698 ft 413 kts 260°
2026-05-08 00:06 52.19660 8.22002 23067 ft 415 kts 266°
2026-05-08 00:06 52.19509 8.17288 23407 ft 417 kts 266°
2026-05-08 00:06 52.19367 8.12550 23753 ft 419 kts 266°
2026-05-08 00:07 52.19217 8.07802 24145 ft 420 kts 266°
2026-05-08 00:07 52.19052 8.03041 24451 ft 423 kts 266°
2026-05-08 00:07 52.18874 7.98221 24622 ft 429 kts 266°
2026-05-08 00:07 52.18687 7.93355 24919 ft 431 kts 266°
2026-05-08 00:08 52.18498 7.88489 25297 ft 431 kts 266°
2026-05-08 00:08 52.18307 7.83610 25637 ft 432 kts 266°
2026-05-08 00:08 52.18113 7.78722 25903 ft 434 kts 266°
2026-05-08 00:08 52.17919 7.73790 26157 ft 436 kts 266°
2026-05-08 00:09 52.17744 7.68904 26407 ft 438 kts 266°
2026-05-08 00:09 52.17562 7.63941 26657 ft 440 kts 265°
2026-05-08 00:09 52.17341 7.58965 26876 ft 442 kts 265°
2026-05-08 00:09 52.17100 7.53969 27095 ft 444 kts 265°
2026-05-08 00:10 52.16854 7.48947 27343 ft 445 kts 265°
2026-05-08 00:10 52.16608 7.43906 27583 ft 446 kts 265°
2026-05-08 00:10 52.16363 7.38853 27803 ft 448 kts 265°
2026-05-08 00:10 52.16118 7.33787 28018 ft 449 kts 265°
2026-05-08 00:11 52.15871 7.28697 28213 ft 451 kts 265°
2026-05-08 00:11 52.15621 7.23599 28388 ft 453 kts 265°
2026-05-08 00:11 52.15369 7.18469 28589 ft 455 kts 265°
2026-05-08 00:11 52.15112 7.13323 28842 ft 454 kts 265°
2026-05-08 00:12 52.14855 7.08213 29176 ft 452 kts 265°
2026-05-08 00:12 52.14598 7.03117 29485 ft 451 kts 264°
2026-05-08 00:12 52.14341 6.98035 29728 ft 451 kts 264°
2026-05-08 00:12 52.14082 6.92952 29977 ft 450 kts 264°
2026-05-08 00:13 52.13820 6.87876 30293 ft 448 kts 264°
2026-05-08 00:13 52.13578 6.82826 30575 ft 447 kts 266°
2026-05-08 00:13 52.13624 6.77755 30780 ft 449 kts 275°
2026-05-08 00:13 52.14116 6.72740 31043 ft 449 kts 282°
2026-05-08 00:14 52.15044 6.67941 31367 ft 448 kts 288°
2026-05-08 00:14 52.16123 6.63196 31656 ft 447 kts 289°
2026-05-08 00:14 52.17215 6.58456 31863 ft 447 kts 289°
2026-05-08 00:14 52.18296 6.53717 32106 ft 446 kts 289°
2026-05-08 00:15 52.19361 6.48963 32354 ft 446 kts 288°
2026-05-08 00:15 52.20409 6.44219 32608 ft 445 kts 288°
2026-05-08 00:15 52.21448 6.39476 32855 ft 444 kts 288°
2026-05-08 00:15 52.22482 6.34736 33065 ft 444 kts 288°
2026-05-08 00:16 52.23515 6.29994 33316 ft 443 kts 288°
2026-05-08 00:16 52.24546 6.25259 33598 ft 441 kts 288°
2026-05-08 00:16 52.25569 6.20550 33828 ft 440 kts 288°
2026-05-08 00:16 52.26595 6.15828 33999 ft 441 kts 288°
2026-05-08 00:17 52.27618 6.11105 34186 ft 442 kts 288°
2026-05-08 00:17 52.28641 6.06370 34408 ft 441 kts 288°
2026-05-08 00:17 52.29646 6.01712 34597 ft 441 kts 288°
2026-05-08 00:17 52.30678 5.96918 34766 ft 441 kts 288°
2026-05-08 00:18 52.31695 5.92185 34949 ft 441 kts 287°
2026-05-08 00:18 52.32697 5.87509 35100 ft 442 kts 287°
2026-05-08 00:18 52.34731 5.77977 35115 ft 444 kts 287°
2026-05-08 00:19 52.36749 5.68490 35115 ft 440 kts 287°
2026-05-08 00:19 52.37991 5.58775 35133 ft 434 kts 271°
2026-05-08 00:20 52.37678 5.50624 35132 ft 431 kts 260°
2026-05-08 00:20 52.36664 5.40934 35130 ft 432 kts 259°
2026-05-08 00:21 52.35689 5.31232 35130 ft 434 kts 260°
2026-05-08 00:21 52.34730 5.21455 35126 ft 436 kts 260°
2026-05-08 00:22 52.33043 5.12000 35127 ft 436 kts 237°
2026-05-08 00:22 52.31152 5.08134 35111 ft 437 kts 224°
2026-05-08 00:22 52.28720 5.05192 35112 ft 438 kts 209°
2026-05-08 00:23 52.23248 5.00834 35113 ft 440 kts 206°
2026-05-08 00:23 52.17687 4.96583 35106 ft 442 kts 206°
2026-05-08 00:24 52.14926 4.94436 35300 ft 436 kts 207°
2026-05-08 00:24 52.12208 4.92303 35541 ft 433 kts 207°
2026-05-08 00:24 52.09500 4.90167 35790 ft 431 kts 207°
2026-05-08 00:24 52.06814 4.88044 36022 ft 429 kts 207°
2026-05-08 00:25 52.04128 4.85922 36263 ft 427 kts 207°
2026-05-08 00:25 52.01457 4.83816 36503 ft 425 kts 207°
2026-05-08 00:25 51.98805 4.81728 36746 ft 423 kts 207°
2026-05-08 00:25 51.96155 4.79648 36996 ft 420 kts 207°
2026-05-08 00:26 51.93533 4.77591 37239 ft 418 kts 207°
2026-05-08 00:26 51.90918 4.75540 37486 ft 416 kts 207°
2026-05-08 00:26 51.88323 4.73496 37723 ft 413 kts 207°
2026-05-08 00:26 51.85776 4.71491 37958 ft 410 kts 207°
2026-05-08 00:27 51.83215 4.69480 38106 ft 410 kts 207°
2026-05-08 00:27 51.80631 4.67468 38096 ft 413 kts 207°
2026-05-08 00:27 51.75397 4.63427 38109 ft 420 kts 207°
2026-05-08 00:28 51.70090 4.59335 38113 ft 426 kts 207°
2026-05-08 00:28 51.64711 4.55189 38113 ft 431 kts 207°
2026-05-08 00:29 51.59268 4.50975 38108 ft 436 kts 207°
2026-05-08 00:29 51.53811 4.46759 38109 ft 439 kts 207°
2026-05-08 00:30 51.48289 4.42504 38102 ft 441 kts 207°
2026-05-08 00:30 51.42744 4.38244 38102 ft 441 kts 207°
2026-05-08 00:31 51.37201 4.34039 38097 ft 440 kts 206°
2026-05-08 00:31 51.31698 4.29949 38096 ft 438 kts 206°
2026-05-08 00:32 51.26206 4.25790 38097 ft 435 kts 207°
2026-05-08 00:32 51.20753 4.21627 38096 ft 433 kts 207°
2026-05-08 00:33 51.15279 4.17645 38092 ft 432 kts 201°
2026-05-08 00:33 51.09594 4.14542 38095 ft 431 kts 200°
2026-05-08 00:34 51.03924 4.11508 38100 ft 429 kts 201°
2026-05-08 00:34 50.98265 4.08438 38104 ft 429 kts 201°
2026-05-08 00:35 50.92615 4.05360 38105 ft 430 kts 201°
2026-05-08 00:35 50.86957 4.02256 38102 ft 431 kts 202°
2026-05-08 00:36 50.81419 3.98750 38101 ft 431 kts 204°
2026-05-08 00:36 50.75867 3.95108 38095 ft 433 kts 204°
2026-05-08 00:37 50.70283 3.91507 38084 ft 434 kts 204°
2026-05-08 00:38 50.61855 3.86133 38076 ft 436 kts 204°
2026-05-08 00:38 50.56233 3.82546 38070 ft 436 kts 205°
2026-05-08 00:39 50.50676 3.78761 38072 ft 435 kts 206°
2026-05-08 00:39 50.45174 3.74966 38070 ft 434 kts 205°
2026-05-08 00:40 50.39648 3.71197 38071 ft 432 kts 205°
2026-05-08 00:40 50.34132 3.67457 38070 ft 432 kts 205°
2026-05-08 00:41 50.28617 3.63727 38074 ft 431 kts 205°
2026-05-08 00:41 50.23120 3.60019 38072 ft 430 kts 205°
2026-05-08 00:42 50.17630 3.56323 38073 ft 430 kts 205°
2026-05-08 00:42 50.12129 3.52623 38081 ft 431 kts 205°
2026-05-08 00:43 50.06638 3.48941 38078 ft 434 kts 205°
2026-05-08 00:43 50.01074 3.45224 38076 ft 436 kts 205°
2026-05-08 00:44 49.95493 3.41505 38079 ft 437 kts 205°
2026-05-08 00:44 49.89928 3.37803 38063 ft 431 kts 205°
2026-05-08 00:45 49.84443 3.34166 38068 ft 427 kts 205°
2026-05-08 00:45 49.78993 3.30559 38069 ft 425 kts 205°
2026-05-08 00:46 49.73566 3.26976 38072 ft 423 kts 205°
2026-05-08 00:46 49.68185 3.23432 38077 ft 424 kts 205°
2026-05-08 00:47 49.62747 3.19858 38077 ft 425 kts 205°
2026-05-08 00:47 49.57283 3.16276 38075 ft 427 kts 205°
2026-05-08 00:48 49.51792 3.12685 38077 ft 429 kts 205°
2026-05-08 00:48 49.46460 3.08590 38079 ft 428 kts 215°
2026-05-08 00:49 49.41496 3.03495 38083 ft 430 kts 215°
2026-05-08 00:49 49.36530 2.98378 38071 ft 431 kts 215°
2026-05-08 00:50 49.31523 2.93286 38069 ft 431 kts 215°
2026-05-08 00:50 49.26550 2.88266 38074 ft 430 kts 215°
2026-05-08 00:51 49.21766 2.83452 38073 ft 430 kts 215°
2026-05-08 00:51 49.16762 2.78429 38073 ft 429 kts 215°
2026-05-08 00:52 49.11808 2.73469 38072 ft 428 kts 215°
2026-05-08 00:52 49.06803 2.68464 38070 ft 426 kts 214°
2026-05-08 00:53 49.01875 2.63550 38074 ft 425 kts 214°
2026-05-08 00:53 48.96894 2.58595 38071 ft 425 kts 214°
2026-05-08 00:54 48.91981 2.53719 38072 ft 424 kts 214°
2026-05-08 00:54 48.87040 2.48825 38078 ft 423 kts 214°
2026-05-08 00:55 48.82100 2.43941 38068 ft 423 kts 214°
2026-05-08 00:55 48.77167 2.39075 38055 ft 424 kts 214°
2026-05-08 00:56 48.72221 2.34207 38050 ft 424 kts 214°
2026-05-08 00:56 48.67296 2.29372 38044 ft 424 kts 214°
2026-05-08 00:57 48.62345 2.24522 38046 ft 424 kts 214°
2026-05-08 00:57 48.57274 2.19942 38041 ft 426 kts 206°
2026-05-08 00:58 48.51592 2.17341 38056 ft 429 kts 194°
2026-05-08 00:58 48.45724 2.15550 38044 ft 430 kts 194°
2026-05-08 00:59 48.39866 2.13713 38047 ft 430 kts 194°
2026-05-08 00:59 48.34010 2.11832 38049 ft 430 kts 194°
2026-05-08 01:00 48.28094 2.10384 38035 ft 434 kts 184°
2026-05-08 01:00 48.22058 2.11230 38046 ft 438 kts 174°
2026-05-08 01:01 48.16083 2.12614 38038 ft 437 kts 175°
2026-05-08 01:01 48.10059 2.12731 38038 ft 431 kts 190°
2026-05-08 01:02 48.04115 2.11507 38037 ft 430 kts 191°
2026-05-08 01:02 47.98183 2.10294 38045 ft 431 kts 190°
2026-05-08 01:03 47.92246 2.09134 38044 ft 430 kts 190°
2026-05-08 01:03 47.86300 2.07992 38049 ft 430 kts 190°
2026-05-08 01:04 47.80363 2.06856 38044 ft 430 kts 190°
2026-05-08 01:04 47.74427 2.05722 38047 ft 430 kts 190°
2026-05-08 01:05 47.68524 2.04594 38038 ft 430 kts 190°
2026-05-08 01:05 47.62621 2.03194 38031 ft 428 kts 198°
2026-05-08 01:06 47.57071 2.00116 38035 ft 425 kts 204°
2026-05-08 01:06 47.51572 1.96833 38025 ft 426 kts 204°
2026-05-08 01:07 47.46060 1.93603 38032 ft 426 kts 203°
2026-05-08 01:07 47.40535 1.90404 38027 ft 427 kts 203°
2026-05-08 01:08 47.35001 1.87214 38027 ft 427 kts 203°
2026-05-08 01:08 47.30400 1.84567 38022 ft 427 kts 203°
2026-05-08 01:09 47.23955 1.80867 38014 ft 428 kts 203°
2026-05-08 01:09 47.18400 1.77693 38025 ft 428 kts 202°
2026-05-08 01:10 47.12830 1.74558 38016 ft 429 kts 202°
2026-05-08 01:10 47.08195 1.71960 38019 ft 429 kts 202°
2026-05-08 01:11 47.02621 1.68837 38020 ft 429 kts 202°
2026-05-08 01:11 46.97048 1.65720 38015 ft 429 kts 202°
2026-05-08 01:12 46.91471 1.62604 38019 ft 429 kts 202°
2026-05-08 01:12 46.85893 1.59494 38019 ft 429 kts 202°
2026-05-08 01:13 46.80303 1.56384 38018 ft 430 kts 202°
2026-05-08 01:13 46.74714 1.53283 38017 ft 430 kts 202°
2026-05-08 01:14 46.69115 1.50183 38019 ft 430 kts 202°
2026-05-08 01:14 46.63551 1.47109 38018 ft 430 kts 202°
2026-05-08 01:15 46.57943 1.44018 38020 ft 430 kts 202°
2026-05-08 01:15 46.52343 1.40939 38016 ft 430 kts 202°
2026-05-08 01:16 46.46730 1.37859 38008 ft 431 kts 202°
2026-05-08 01:16 46.41162 1.34808 38011 ft 431 kts 202°
2026-05-08 01:17 46.35543 1.31737 38007 ft 430 kts 202°
2026-05-08 01:17 46.29936 1.28682 37997 ft 430 kts 202°
2026-05-08 01:18 46.24336 1.25637 37998 ft 430 kts 202°
2026-05-08 01:18 46.18738 1.22599 38000 ft 429 kts 202°
2026-05-08 01:19 46.13143 1.19567 38000 ft 429 kts 202°
2026-05-08 01:19 46.07571 1.16555 38003 ft 430 kts 202°
2026-05-08 01:20 46.01970 1.13534 37997 ft 430 kts 202°
2026-05-08 01:20 45.96371 1.10521 37988 ft 430 kts 202°
2026-05-08 01:21 45.90760 1.07507 37990 ft 430 kts 202°
2026-05-08 01:21 45.85152 1.04501 37992 ft 431 kts 202°
2026-05-08 01:22 45.79848 1.00604 37992 ft 428 kts 218°
2026-05-08 01:22 45.75293 0.95199 37992 ft 428 kts 221°
2026-05-08 01:23 45.70760 0.89679 37991 ft 428 kts 221°
2026-05-08 01:23 45.66209 0.84200 37990 ft 427 kts 221°
2026-05-08 01:24 45.61643 0.78750 37990 ft 427 kts 220°
2026-05-08 01:24 45.57069 0.73317 37979 ft 427 kts 220°
2026-05-08 01:25 45.52525 0.67929 37980 ft 427 kts 220°
2026-05-08 01:25 45.47951 0.62515 37982 ft 427 kts 220°
2026-05-08 01:26 45.43372 0.57107 37982 ft 427 kts 220°
2026-05-08 01:26 45.38789 0.51706 37982 ft 427 kts 220°
2026-05-08 01:27 45.34205 0.46319 37985 ft 427 kts 220°
2026-05-08 01:27 45.29620 0.40936 37981 ft 427 kts 220°
2026-05-08 01:28 45.25038 0.35572 37981 ft 427 kts 220°
2026-05-08 01:28 45.20449 0.30213 37972 ft 427 kts 220°
2026-05-08 01:29 45.15859 0.24863 37973 ft 427 kts 220°
2026-05-08 01:29 45.11298 0.19556 37968 ft 426 kts 220°
2026-05-08 01:30 45.06712 0.14229 37972 ft 426 kts 220°
2026-05-08 01:30 45.02112 0.08904 37968 ft 427 kts 220°
2026-05-08 01:31 44.97515 0.03593 37963 ft 426 kts 220°
2026-05-08 01:31 44.92957 -0.01664 37961 ft 426 kts 221°
2026-05-08 01:32 44.88369 -0.06946 37947 ft 426 kts 222°
2026-05-08 01:32 44.83775 -0.12225 37970 ft 426 kts 222°
2026-05-08 01:33 44.79172 -0.17502 37967 ft 426 kts 221°
2026-05-08 01:33 44.74563 -0.22776 37971 ft 427 kts 222°
2026-05-08 01:34 44.69936 -0.28062 37962 ft 429 kts 221°
2026-05-08 01:34 44.65275 -0.33318 37965 ft 431 kts 218°
2026-05-08 01:35 44.60085 -0.37507 37960 ft 434 kts 210°
2026-05-08 01:35 44.54702 -0.41384 37960 ft 435 kts 210°
2026-05-08 01:36 44.49323 -0.45275 37961 ft 435 kts 211°
2026-05-08 01:36 44.43948 -0.49196 37955 ft 436 kts 211°
2026-05-08 01:37 44.38563 -0.53135 37951 ft 436 kts 211°
2026-05-08 01:37 44.33186 -0.57063 37945 ft 436 kts 211°
2026-05-08 01:38 44.27813 -0.60977 37944 ft 435 kts 211°
2026-05-08 01:38 44.22440 -0.64883 37946 ft 435 kts 211°
2026-05-08 01:39 44.17102 -0.68755 37940 ft 434 kts 211°
2026-05-08 01:39 44.11745 -0.72632 37942 ft 433 kts 211°
2026-05-08 01:40 44.06400 -0.76494 37934 ft 433 kts 211°
2026-05-08 01:40 44.01055 -0.80349 37933 ft 432 kts 211°
2026-05-08 01:41 43.95709 -0.84197 37936 ft 432 kts 211°
2026-05-08 01:41 43.90370 -0.88030 37934 ft 432 kts 211°
2026-05-08 01:42 43.85068 -0.91831 37936 ft 431 kts 211°
2026-05-08 01:42 43.79733 -0.95647 37936 ft 431 kts 211°
2026-05-08 01:43 43.74406 -0.99449 37938 ft 431 kts 211°
2026-05-08 01:43 43.69069 -1.03250 37936 ft 431 kts 211°
2026-05-08 01:44 43.63729 -1.07046 37935 ft 432 kts 211°
2026-05-08 01:44 43.58382 -1.10840 37936 ft 432 kts 211°
2026-05-08 01:45 43.53024 -1.14633 37937 ft 433 kts 211°
2026-05-08 01:45 43.47660 -1.18425 37934 ft 433 kts 211°
2026-05-08 01:46 43.42292 -1.22209 37934 ft 433 kts 211°
2026-05-08 01:46 43.36924 -1.25988 37925 ft 434 kts 211°
2026-05-08 01:47 43.31542 -1.29772 37916 ft 434 kts 211°
2026-05-08 01:47 43.26170 -1.33537 37927 ft 433 kts 211°
2026-05-08 01:48 43.18114 -1.39168 37932 ft 432 kts 211°
2026-05-08 01:48 43.12761 -1.42904 37943 ft 431 kts 211°
2026-05-08 01:49 43.07448 -1.46604 37937 ft 431 kts 211°
2026-05-08 01:49 43.02078 -1.50339 37948 ft 429 kts 212°
2026-05-08 01:50 42.96790 -1.54015 37942 ft 429 kts 212°
2026-05-08 01:50 42.91471 -1.57707 37959 ft 428 kts 212°
2026-05-08 01:51 42.86152 -1.61393 37966 ft 429 kts 212°
2026-05-08 01:51 42.80834 -1.65070 37967 ft 429 kts 212°
2026-05-08 01:52 42.75508 -1.68744 37963 ft 429 kts 212°
2026-05-08 01:52 42.70173 -1.72391 37977 ft 429 kts 212°
2026-05-08 01:53 42.64815 -1.75981 37969 ft 429 kts 212°
2026-05-08 01:53 42.59458 -1.79566 37957 ft 429 kts 212°
2026-05-08 01:54 42.54106 -1.83144 37954 ft 428 kts 212°
2026-05-08 01:54 42.48761 -1.86720 37964 ft 428 kts 212°
2026-05-08 01:55 42.43446 -1.90268 37965 ft 428 kts 212°
2026-05-08 01:55 42.38098 -1.93832 37972 ft 428 kts 212°
2026-05-08 01:56 42.32760 -1.97388 37954 ft 427 kts 212°
2026-05-08 01:56 42.27433 -2.00942 37977 ft 427 kts 212°
2026-05-08 01:57 42.22103 -2.04484 37965 ft 426 kts 212°
2026-05-08 01:57 42.16777 -2.08012 37970 ft 426 kts 212°
2026-05-08 01:58 42.11445 -2.11539 37977 ft 427 kts 212°
2026-05-08 01:58 42.06143 -2.15034 37971 ft 428 kts 212°
2026-05-08 01:59 42.00799 -2.18552 37984 ft 427 kts 212°
2026-05-08 01:59 41.95455 -2.22067 37969 ft 427 kts 212°
2026-05-08 02:00 41.90121 -2.25564 37966 ft 426 kts 212°
2026-05-08 02:00 41.85763 -2.28411 37948 ft 407 kts 212°
2026-05-08 02:01 41.83263 -2.30038 37956 ft 393 kts 212°
2026-05-08 02:01 41.80853 -2.31607 37946 ft 378 kts 213°
2026-05-08 02:01 41.76130 -2.34703 37569 ft 387 kts 213°
2026-05-08 02:02 41.73683 -2.36315 36970 ft 395 kts 213°
2026-05-08 02:02 41.71194 -2.37946 36127 ft 402 kts 213°
2026-05-08 02:02 41.68652 -2.39606 35185 ft 412 kts 214°
2026-05-08 02:02 41.66034 -2.41314 34104 ft 424 kts 214°
2026-05-08 02:03 41.63339 -2.43068 33000 ft 436 kts 214°
2026-05-08 02:03 41.60581 -2.44858 32006 ft 444 kts 214°
2026-05-08 02:03 41.57802 -2.46649 31434 ft 441 kts 214°
2026-05-08 02:03 41.55061 -2.48412 31008 ft 434 kts 214°
2026-05-08 02:04 41.52355 -2.50162 30504 ft 430 kts 214°
2026-05-08 02:04 41.49705 -2.51879 30022 ft 428 kts 214°
2026-05-08 02:04 41.47037 -2.53587 29543 ft 423 kts 213°
2026-05-08 02:04 41.44361 -2.55295 29045 ft 419 kts 213°
2026-05-08 02:05 41.41777 -2.56949 28509 ft 416 kts 213°
2026-05-08 02:05 41.39175 -2.58616 27998 ft 413 kts 212°
2026-05-08 02:05 41.36594 -2.60268 27506 ft 409 kts 212°
2026-05-08 02:05 41.34030 -2.61882 26997 ft 408 kts 208°
2026-05-08 02:06 41.31259 -2.62849 26452 ft 418 kts 190°
2026-05-08 02:06 41.28337 -2.62799 26029 ft 419 kts 181°
2026-05-08 02:06 41.25442 -2.62510 25622 ft 414 kts 180°
2026-05-08 02:06 41.22583 -2.62194 25150 ft 411 kts 180°
2026-05-08 02:07 41.19742 -2.61890 24669 ft 407 kts 180°
2026-05-08 02:07 41.16930 -2.61609 24210 ft 403 kts 180°
2026-05-08 02:07 41.14146 -2.61348 23779 ft 399 kts 180°
2026-05-08 02:07 41.11427 -2.61101 23398 ft 393 kts 180°
2026-05-08 02:08 41.08696 -2.60859 22862 ft 392 kts 180°
2026-05-08 02:08 41.05940 -2.60616 22363 ft 390 kts 179°
2026-05-08 02:08 41.03240 -2.60377 21874 ft 388 kts 179°
2026-05-08 02:08 41.00587 -2.60142 21402 ft 386 kts 179°
2026-05-08 02:09 40.97918 -2.59905 21049 ft 381 kts 179°
2026-05-08 02:09 40.95278 -2.59671 21007 ft 380 kts 179°
2026-05-08 02:09 40.92683 -2.59439 20967 ft 367 kts 179°
2026-05-08 02:09 40.90183 -2.59203 20953 ft 353 kts 179°
2026-05-08 02:10 40.87784 -2.58964 20950 ft 339 kts 179°
2026-05-08 02:10 40.85476 -2.58729 20959 ft 326 kts 179°
2026-05-08 02:10 40.83256 -2.58492 20960 ft 314 kts 179°
2026-05-08 02:10 40.81118 -2.58255 20961 ft 302 kts 179°
2026-05-08 02:11 40.79064 -2.58021 20963 ft 291 kts 179°
2026-05-08 02:11 40.77091 -2.57787 20964 ft 279 kts 181°
2026-05-08 02:11 40.75248 -2.58099 20968 ft 258 kts 208°
2026-05-08 02:11 40.73829 -2.59473 20992 ft 257 kts 236°
2026-05-08 02:12 40.73089 -2.61623 20987 ft 264 kts 262°
2026-05-08 02:12 40.73159 -2.64060 20851 ft 272 kts 279°
2026-05-08 02:12 40.73409 -2.66571 20347 ft 279 kts 264°
2026-05-08 02:12 40.72961 -2.69060 19933 ft 282 kts 251°
2026-05-08 02:13 40.72248 -2.71486 19483 ft 286 kts 245°
2026-05-08 02:13 40.71362 -2.73854 19043 ft 290 kts 243°
2026-05-08 02:13 40.70309 -2.76143 18576 ft 295 kts 228°
2026-05-08 02:13 40.68710 -2.77854 18156 ft 299 kts 215°
2026-05-08 02:14 40.66942 -2.79340 17712 ft 303 kts 213°
2026-05-08 02:14 40.65138 -2.80808 17264 ft 306 kts 213°
2026-05-08 02:14 40.63320 -2.82279 16819 ft 309 kts 213°
2026-05-08 02:14 40.61479 -2.83768 16379 ft 312 kts 212°
2026-05-08 02:15 40.59623 -2.85274 15918 ft 314 kts 212°
2026-05-08 02:15 40.57781 -2.86773 15476 ft 316 kts 212°
2026-05-08 02:15 40.55908 -2.88301 15063 ft 317 kts 212°
2026-05-08 02:15 40.54050 -2.89824 14793 ft 313 kts 212°
2026-05-08 02:16 40.52213 -2.91335 14485 ft 310 kts 212°
2026-05-08 02:16 40.50393 -2.92838 14183 ft 308 kts 212°
2026-05-08 02:16 40.48584 -2.94335 13881 ft 306 kts 212°
2026-05-08 02:16 40.46793 -2.95822 13587 ft 304 kts 212°
2026-05-08 02:17 40.45015 -2.97303 13275 ft 302 kts 212°
2026-05-08 02:17 40.43251 -2.98775 12975 ft 300 kts 212°
2026-05-08 02:17 40.41498 -3.00243 12651 ft 299 kts 212°
2026-05-08 02:17 40.39737 -3.01723 12205 ft 302 kts 212°
2026-05-08 02:18 40.37958 -3.03222 11760 ft 305 kts 212°
2026-05-08 02:18 40.36169 -3.04736 11316 ft 308 kts 212°
2026-05-08 02:18 40.34363 -3.06268 10844 ft 311 kts 212°
2026-05-08 02:18 40.32526 -3.07829 10211 ft 318 kts 212°
2026-05-08 02:19 40.30651 -3.09424 9587 ft 324 kts 212°
2026-05-08 02:19 40.28742 -3.11050 8971 ft 329 kts 212°
2026-05-08 02:19 40.26810 -3.12698 8373 ft 333 kts 212°
2026-05-08 02:19 40.24891 -3.14334 8135 ft 324 kts 212°
2026-05-08 02:20 40.23031 -3.15921 8026 ft 312 kts 212°
2026-05-08 02:20 40.21284 -3.17441 7991 ft 300 kts 217°
2026-05-08 02:20 40.19977 -3.19464 7995 ft 287 kts 243°
2026-05-08 02:20 40.19512 -3.21926 7987 ft 276 kts 270°
2026-05-08 02:21 40.19948 -3.24302 7987 ft 267 kts 297°
2026-05-08 02:21 40.21118 -3.26099 8002 ft 256 kts 319°
2026-05-08 02:21 40.22471 -3.27533 7984 ft 245 kts 320°
2026-05-08 02:21 40.23786 -3.28900 7984 ft 239 kts 320°
2026-05-08 02:22 40.25079 -3.30242 7992 ft 237 kts 320°
2026-05-08 02:22 40.26380 -3.31589 8007 ft 239 kts 320°
2026-05-08 02:22 40.27683 -3.32940 8007 ft 240 kts 320°
2026-05-08 02:22 40.29016 -3.34318 7770 ft 248 kts 320°
2026-05-08 02:23 40.30366 -3.35711 7558 ft 244 kts 320°
2026-05-08 02:23 40.31680 -3.37066 7322 ft 237 kts 320°
2026-05-08 02:23 40.32965 -3.38392 7074 ft 234 kts 320°
2026-05-08 02:23 40.34246 -3.39716 6827 ft 234 kts 320°
2026-05-08 02:24 40.35460 -3.41138 6331 ft 243 kts 314°
2026-05-08 02:24 40.36679 -3.42681 5915 ft 242 kts 316°
2026-05-08 02:24 40.37959 -3.44090 5557 ft 237 kts 321°
2026-05-08 02:24 40.39257 -3.45396 5187 ft 234 kts 321°
2026-05-08 02:25 40.40547 -3.46678 4712 ft 230 kts 323°
2026-05-08 02:25 40.41787 -3.47949 4149 ft 222 kts 323°
2026-05-08 02:25 40.42992 -3.49162 3581 ft 214 kts 322°
2026-05-08 02:25 40.44134 -3.50322 3215 ft 202 kts 321°
2026-05-08 02:26 40.45236 -3.51456 2768 ft 200 kts 321°
2026-05-08 02:26 40.46277 -3.52548 2358 ft 182 kts 323°
2026-05-08 02:26 40.47257 -3.53534 2005 ft 173 kts 323°
2026-05-08 02:26 40.48137 -3.54420 1936 ft 145 kts 323°
2026-05-08 02:27 40.48854 -3.55144 1955 ft 113 kts 322°
2026-05-08 02:27 40.49354 -3.55652 1961 ft 44 kts 322°
2026-05-08 02:27 40.49411 -3.55866 1961 ft 0 kts 270°
2026-05-08 02:27 40.49411 -3.55868 1961 ft 0 kts 270°
2026-05-08 02:32 40.49410 -3.55880 1961 ft 6 kts 264°
2026-05-08 02:32 40.49397 -3.55979 1959 ft 16 kts 272°
2026-05-08 02:32 40.49386 -3.56125 1960 ft 12 kts 215°
2026-05-08 02:32 40.49354 -3.56137 1958 ft 8 kts 190°
2026-05-08 02:33 40.49274 -3.56222 1962 ft 15 kts 208°
2026-05-08 02:33 40.49220 -3.56330 1963 ft 15 kts 265°
2026-05-08 02:33 40.49187 -3.56439 1969 ft 14 kts 200°
2026-05-08 02:33 40.49057 -3.56448 1966 ft 24 kts 180°
2026-05-08 02:34 40.48945 -3.56448 1966 ft 8 kts 180°
2026-05-08 02:34 40.48886 -3.56459 1970 ft 10 kts 211°
2026-05-08 02:34 40.48800 -3.56544 1969 ft 12 kts 213°
2026-05-08 02:34 40.48772 -3.56593 1970 ft 11 kts 252°
2026-05-08 02:35 40.48767 -3.56761 1974 ft 26 kts 270°
2026-05-08 02:35 40.48767 -3.56873 1976 ft 11 kts 270°
2026-05-08 02:35 40.48761 -3.56955 1978 ft 7 kts 248°
2026-05-08 02:35 40.48685 -3.56997 1985 ft 17 kts 181°
2026-05-08 02:36 40.48551 -3.56998 1993 ft 22 kts 180°
2026-05-08 02:36 40.48389 -3.56997 2004 ft 19 kts 180°
2026-05-08 02:36 40.48269 -3.56990 2002 ft 18 kts 167°
2026-05-08 02:36 40.48146 -3.56945 2001 ft 20 kts 164°
2026-05-08 02:37 40.48027 -3.56901 1997 ft 11 kts 164°
2026-05-08 02:37 40.47950 -3.56872 1995 ft 11 kts 164°
2026-05-08 02:37 40.47855 -3.56837 1995 ft 20 kts 165°
2026-05-08 02:37 40.47716 -3.56790 1993 ft 5 kts 191°
2026-05-08 02:38 40.47721 -3.56839 1993 ft 12 kts 296°
2026-05-08 02:38 40.47784 -3.56999 1997 ft 26 kts 294°
2026-05-08 02:38 40.47771 -3.57111 1999 ft 8 kts 194°
2026-05-08 02:38 40.47713 -3.57080 1996 ft 13 kts 144°
2026-05-08 02:39 40.47593 -3.56959 1992 ft 29 kts 142°
2026-05-08 02:39 40.47468 -3.56832 1990 ft 19 kts 142°
2026-05-08 02:39 40.47373 -3.56736 1987 ft 16 kts 142°
2026-05-08 02:39 40.47283 -3.56644 1984 ft 18 kts 142°
2026-05-08 02:40 40.47169 -3.56530 1979 ft 19 kts 147°
2026-05-08 02:40 40.47054 -3.56463 1976 ft 17 kts 166°
2026-05-08 02:40 40.46944 -3.56453 1979 ft 15 kts 182°
2026-05-08 02:40 40.46835 -3.56461 1973 ft 17 kts 184°
2026-05-08 02:41 40.46697 -3.56472 1973 ft 22 kts 182°
2026-05-08 02:41 40.46558 -3.56483 1972 ft 18 kts 183°
2026-05-08 02:41 40.46437 -3.56492 1971 ft 17 kts 183°
2026-05-08 02:41 40.46339 -3.56498 1973 ft 5 kts 173°
2026-05-08 02:42 40.46302 -3.56456 1975 ft 13 kts 112°
2026-05-08 02:42 40.46297 -3.56276 1965 ft 28 kts 90°
2026-05-08 02:42 40.46297 -3.56083 1957 ft 16 kts 90°
2026-05-08 02:42 40.46297 -3.55922 1951 ft 19 kts 89°
2026-05-08 02:43 40.46297 -3.55811 1946 ft 14 kts 96°
2026-05-08 02:43 40.46236 -3.55702 1944 ft 17 kts 141°
2026-05-08 02:43 40.46149 -3.55614 1944 ft 11 kts 142°
2026-05-08 02:43 40.46079 -3.55619 1945 ft 10 kts 190°
2026-05-08 02:44 40.46009 -3.55622 1945 ft 10 kts 182°
2026-05-08 02:44 40.45976 -3.55611 1945 ft 1 kts 141°
2026-05-08 02:44 40.45964 -3.55616 1945 ft 3 kts 205°
2026-05-08 02:44 40.45932 -3.55618 1945 ft 3 kts 161°
2026-05-08 02:45 40.45912 -3.55605 1945 ft 3 kts 154°
2026-05-08 02:45 40.45892 -3.55590 1945 ft 0 kts 149°
2026-05-08 03:20 40.45894 -3.55592 1945 ft 2 kts 149°
2026-05-08 03:20 40.45917 -3.55609 1945 ft 4 kts 149°
2026-05-08 03:21 40.45936 -3.55624 1945 ft 4 kts 143°
2026-05-08 03:21 40.45954 -3.55649 1946 ft 4 kts 115°
2026-05-08 03:21 40.45960 -3.55681 1947 ft 3 kts 90°
2026-05-08 03:21 40.45960 -3.55691 1947 ft 0 kts 89°